| time (UTC) | temp C | wind direction | speed KPH | gust KPH | rain 1hr cm | rain 24hr cm | rain mn cm | humidity % | barometer mb |
| 20260906072515 | 26 | 90 | 3.2 | 8.0 | 0.00 | 0.00 | 0.00 | 62 | 1018.0 |
| 20260906071518 | 26 | 0.0 | 0.0 | 0.00 | 0.00 | 0.00 | 65 | 1018.0 | |
| 20260906070537 | 26 | 0.0 | 0.0 | 0.00 | 0.00 | 0.00 | 66 | 1017.9 | |
| 20260906065517 | 26 | 0.0 | 0.0 | 0.00 | 0.00 | 0.00 | 67 | 1017.9 | |
| 20260906064517 | 26 | 0.0 | 0.0 | 0.00 | 0.00 | 0.00 | 66 | 1017.8 | |
| 20260906063517 | 25 | 0.0 | 0.0 | 0.00 | 0.00 | 0.00 | 68 | 1017.8 | |
| 20260906062557 | 25 | 0.0 | 0.0 | 0.00 | 0.00 | 0.00 | 70 | 1017.8 | |
| 20260906061517 | 23 | 0.0 | 0.0 | 0.00 | 0.00 | 0.00 | 74 | 1017.8 | |
| 20260906060517 | 22 | 0.0 | 0.0 | 0.00 | 0.00 | 0.00 | 74 | 1017.8 | |
| 20260906055517 | 22 | 0.0 | 0.0 | 0.00 | 0.00 | 0.00 | 77 | 1017.8 | |
| 20260906054517 | 22 | 0.0 | 0.0 | 0.00 | 0.00 | 0.00 | 78 | 1017.7 | |
| 20260906053517 | 21 | 0.0 | 0.0 | 0.00 | 0.00 | 0.00 | 77 | 1017.6 | |
| 20260906052517 | 21 | 0.0 | 0.0 | 0.00 | 0.00 | 0.00 | 72 | 1017.6 | |
| 20260906051517 | 21 | 0.0 | 0.0 | 0.00 | 0.00 | 0.00 | 68 | 1017.6 | |
| 20260906050517 | 20 | 0.0 | 0.0 | 0.00 | 0.00 | 0.00 | 69 | 1017.5 | |
| 20260906045517 | 20 | 0.0 | 0.0 | 0.00 | 0.00 | 0.00 | 67 | 1017.5 | |
| 20260906044517 | 20 | 0.0 | 0.0 | 0.00 | 0.00 | 0.00 | 68 | 1017.5 | |
| 20260906043517 | 20 | 0.0 | 0.0 | 0.00 | 0.00 | 0.00 | 67 | 1017.5 | |
| 20260906042537 | 20 | 0.0 | 0.0 | 0.00 | 0.00 | 0.00 | 70 | 1017.4 | |
| 20260906041517 | 20 | 0.0 | 0.0 | 0.00 | 0.00 | 0.00 | 73 | 1017.5 | |
| 20260906040517 | 20 | 0.0 | 0.0 | 0.00 | 0.00 | 0.00 | 70 | 1017.3 | |
| 20260906035537 | 20 | 0.0 | 0.0 | 0.00 | 0.00 | 0.00 | 72 | 1017.4 | |
| 20260906034517 | 20 | 0.0 | 0.0 | 0.00 | 0.00 | 0.00 | 72 | 1017.3 | |
| 20260906033517 | 20 | 0.0 | 0.0 | 0.00 | 0.00 | 0.00 | 69 | 1017.3 | |
| 20260906032517 | 20 | 0.0 | 0.0 | 0.00 | 0.00 | 0.00 | 68 | 1017.3 | |
| 20260906031517 | 20 | 0.0 | 0.0 | 0.00 | 0.00 | 0.00 | 67 | 1017.3 | |
| 20260906030517 | 20 | 0.0 | 0.0 | 0.00 | 0.00 | 0.00 | 68 | 1017.3 | |
| 20260906025517 | 20 | 0.0 | 0.0 | 0.00 | 0.00 | 0.00 | 68 | 1017.3 | |
| 20260906024517 | 20 | 0.0 | 0.0 | 0.00 | 0.00 | 0.00 | 71 | 1017.3 | |
| 20260906023517 | 20 | 0.0 | 0.0 | 0.00 | 0.00 | 0.00 | 73 | 1017.5 | |
| 20260906022517 | 20 | 0.0 | 0.0 | 0.00 | 0.00 | 0.00 | 73 | 1017.5 | |
| 20260906021517 | 20 | 0.0 | 0.0 | 0.00 | 0.00 | 0.00 | 72 | 1017.5 | |
| 20260906020537 | 21 | 0.0 | 0.0 | 0.00 | 0.00 | 0.00 | 79 | 1017.5 | |
| 20260906015517 | 21 | 0.0 | 0.0 | 0.00 | 0.00 | 0.00 | 76 | 1017.5 | |
| 20260906014517 | 21 | 0.0 | 0.0 | 0.00 | 0.00 | 0.00 | 67 | 1017.6 | |
| 20260906013517 | 21 | 0.0 | 0.0 | 0.00 | 0.00 | 0.00 | 67 | 1017.4 | |
| 20260906012517 | 20 | 0.0 | 0.0 | 0.00 | 0.00 | 0.00 | 69 | 1017.4 | |
| 20260906011517 | 21 | 0.0 | 0.0 | 0.00 | 0.00 | 0.00 | 73 | 1017.4 | |
| 20260906010517 | 20 | 0.0 | 0.0 | 0.00 | 0.00 | 0.00 | 71 | 1017.4 | |
| 20260906005517 | 21 | 0.0 | 0.0 | 0.00 | 0.00 | 0.00 | 72 | 1017.3 | |
| 20260906004517 | 21 | 0.0 | 0.0 | 0.00 | 0.00 | 0.00 | 74 | 1017.4 | |
| 20260906003517 | 21 | 0.0 | 0.0 | 0.00 | 0.00 | 0.00 | 74 | 1017.2 | |
| 20260906002517 | 21 | 0.0 | 0.0 | 0.00 | 0.00 | 0.00 | 77 | 1017.3 | |
| 20260906001517 | 21 | 0.0 | 0.0 | 0.00 | 0.00 | 0.00 | 78 | 1017.3 | |
| 20260906000516 | 22 | 0.0 | 0.0 | 0.00 | 0.00 | 0.00 | 77 | 1017.3 | |
| 20260905235516 | 22 | 0.0 | 0.0 | 0.00 | 0.00 | 0.00 | 77 | 1017.4 | |
| 20260905234517 | 22 | 0.0 | 0.0 | 0.00 | 0.00 | 0.00 | 75 | 1017.5 | |
| 20260905233537 | 22 | 0.0 | 0.0 | 0.00 | 0.00 | 0.00 | 75 | 1017.6 | |
| 20260905232517 | 22 | 0.0 | 1.6 | 0.00 | 0.00 | 0.00 | 76 | 1017.6 | |
| 20260905231516 | 22 | 0.0 | 3.2 | 0.00 | 0.00 | 0.00 | 77 | 1017.5 | |
| 20260905230516 | 22 | 0.0 | 0.0 | 0.00 | 0.00 | 0.00 | 77 | 1017.6 | |
| 20260905225518 | 22 | 0.0 | 0.0 | 0.00 | 0.00 | 0.00 | 78 | 1017.5 | |
| 20260905224516 | 23 | 0.0 | 0.0 | 0.00 | 0.00 | 0.00 | 78 | 1017.5 | |
| 20260905223518 | 23 | 0.0 | 0.0 | 0.00 | 0.00 | 0.00 | 79 | 1017.8 | |
| 20260905222516 | 23 | 0.0 | 0.0 | 0.00 | 0.00 | 0.00 | 78 | 1017.6 | |
| 20260905221516 | 23 | 0.0 | 0.0 | 0.00 | 0.00 | 0.00 | 79 | 1017.5 | |
| 20260905220516 | 22 | 0.0 | 0.0 | 0.00 | 0.00 | 0.00 | 79 | 1017.5 | |
| 20260905215517 | 22 | 0.0 | 0.0 | 0.00 | 0.00 | 0.00 | 79 | 1017.4 | |
| 20260905214517 | 23 | 338 | 3.2 | 6.4 | 0.00 | 0.00 | 0.00 | 81 | 1017.5 |
| 20260905213537 | 23 | 0.0 | 3.2 | 0.00 | 0.00 | 0.00 | 88 | 1017.5 | |
| 20260905212517 | 23 | 0.0 | 1.6 | 0.00 | 0.00 | 0.00 | 88 | 1017.4 | |
| 20260905211517 | 23 | 0.0 | 3.2 | 0.00 | 0.00 | 0.00 | 86 | 1017.4 | |
| 20260905210517 | 23 | 0.0 | 1.6 | 0.00 | 0.00 | 0.00 | 85 | 1017.4 | |
| 20260905205519 | 23 | 0.0 | 1.6 | 0.00 | 0.00 | 0.00 | 84 | 1017.5 | |
| 20260905204517 | 23 | 0.0 | 1.6 | 0.00 | 0.00 | 0.00 | 83 | 1017.4 | |
| 20260905203517 | 23 | 0.0 | 1.6 | 0.00 | 0.00 | 0.00 | 83 | 1017.3 | |
| 20260905202517 | 23 | 338 | 1.6 | 4.8 | 0.00 | 0.00 | 0.00 | 84 | 1017.4 |
| 20260905201517 | 23 | 0.0 | 0.0 | 0.00 | 0.00 | 0.00 | 84 | 1017.4 | |
| 20260905200517 | 23 | 0.0 | 0.0 | 0.00 | 0.00 | 0.00 | 85 | 1017.5 | |
| 20260905195517 | 24 | 0.0 | 0.0 | 0.00 | 0.00 | 0.00 | 86 | 1017.5 | |
| 20260905194517 | 25 | 0.0 | 0.0 | 0.00 | 0.00 | 0.00 | 86 | 1017.4 | |
| 20260905193516 | 25 | 0.0 | 0.0 | 0.00 | 0.00 | 0.00 | 86 | 1017.5 | |
| 20260905192537 | 25 | 0.0 | 0.0 | 0.00 | 0.00 | 0.00 | 85 | 1017.2 | |
| 20260905191517 | 25 | 0.0 | 0.0 | 0.00 | 0.00 | 0.00 | 85 | 1017.1 | |
| 20260905190516 | 25 | 0.0 | 0.0 | 0.00 | 0.00 | 0.00 | 85 | 1017.1 | |
| 20260905185516 | 25 | 0.0 | 0.0 | 0.00 | 0.00 | 0.00 | 84 | 1017.0 | |
| 20260905184516 | 26 | 0.0 | 0.0 | 0.00 | 0.00 | 0.00 | 82 | 1017.0 | |
| 20260905183517 | 26 | 0.0 | 3.2 | 0.00 | 0.00 | 0.00 | 81 | 1016.8 | |
| 20260905182517 | 26 | 225 | 1.6 | 4.8 | 0.00 | 0.00 | 0.00 | 81 | 1016.9 |
| 20260905181516 | 26 | 225 | 1.6 | 4.8 | 0.00 | 0.00 | 0.00 | 79 | 1016.7 |
| 20260905180516 | 26 | 225 | 1.6 | 6.4 | 0.00 | 0.00 | 0.00 | 79 | 1016.7 |
| 20260905175516 | 27 | 203 | 1.6 | 6.4 | 0.00 | 0.00 | 0.00 | 77 | 1016.5 |
| 20260905174516 | 27 | 225 | 3.2 | 11.3 | 0.00 | 0.00 | 0.00 | 78 | 1016.4 |
| 20260905173517 | 27 | 203 | 3.2 | 8.0 | 0.00 | 0.00 | 0.00 | 79 | 1016.2 |
| 20260905172536 | 27 | 203 | 6.4 | 17.7 | 0.00 | 0.00 | 0.00 | 79 | 1016.2 |
| 20260905171516 | 27 | 203 | 4.8 | 9.7 | 0.00 | 0.00 | 0.00 | 78 | 1016.3 |
| 20260905170517 | 28 | 225 | 8.0 | 17.7 | 0.00 | 0.00 | 0.00 | 76 | 1016.2 |
| 20260905165516 | 28 | 203 | 6.4 | 12.9 | 0.00 | 0.00 | 0.00 | 75 | 1016.3 |
| 20260905164516 | 28 | 225 | 8.0 | 16.1 | 0.00 | 0.00 | 0.00 | 74 | 1016.3 |
| 20260905163516 | 29 | 203 | 8.0 | 19.3 | 0.00 | 0.00 | 0.00 | 74 | 1016.2 |
| 20260905162516 | 29 | 203 | 6.4 | 12.9 | 0.00 | 0.00 | 0.00 | 74 | 1016.1 |
| 20260905161516 | 29 | 203 | 11.3 | 22.5 | 0.00 | 0.00 | 0.00 | 74 | 1016.2 |
| 20260905160516 | 29 | 203 | 11.3 | 20.9 | 0.00 | 0.00 | 0.00 | 73 | 1016.2 |
| 20260905155516 | 30 | 203 | 9.7 | 17.7 | 0.00 | 0.00 | 0.00 | 70 | 1016.2 |
| 20260905154516 | 30 | 203 | 9.7 | 17.7 | 0.00 | 0.00 | 0.00 | 69 | 1016.1 |
| 20260905153516 | 30 | 203 | 9.7 | 17.7 | 0.00 | 0.00 | 0.00 | 68 | 1016.2 |
| 20260905152516 | 30 | 203 | 9.7 | 17.7 | 0.00 | 0.00 | 0.00 | 66 | 1016.1 |
| 20260905151536 | 30 | 203 | 9.7 | 19.3 | 0.00 | 0.00 | 0.00 | 65 | 1016.1 |
| 20260905150516 | 30 | 203 | 14.5 | 25.7 | 0.00 | 0.00 | 0.00 | 66 | 1016.1 |
| 20260905145516 | 30 | 203 | 11.3 | 19.3 | 0.00 | 0.00 | 0.00 | 63 | 1016.1 |
| 20260905144516 | 31 | 203 | 9.7 | 17.7 | 0.00 | 0.00 | 0.00 | 63 | 1016.2 |
| 20260905143516 | 31 | 203 | 11.3 | 20.9 | 0.00 | 0.00 | 0.00 | 61 | 1016.3 |
| 20260905142536 | 31 | 203 | 9.7 | 19.3 | 0.00 | 0.00 | 0.00 | 60 | 1016.3 |
| 20260905141516 | 31 | 203 | 9.7 | 19.3 | 0.00 | 0.00 | 0.00 | 61 | 1016.3 |
| 20260905140516 | 31 | 203 | 11.3 | 22.5 | 0.00 | 0.00 | 0.00 | 56 | 1016.4 |
| 20260905135516 | 31 | 203 | 11.3 | 20.9 | 0.00 | 0.00 | 0.00 | 60 | 1016.5 |
| 20260905134516 | 31 | 203 | 11.3 | 20.9 | 0.00 | 0.00 | 0.00 | 62 | 1016.5 |
| 20260905133516 | 31 | 203 | 9.7 | 20.9 | 0.00 | 0.00 | 0.00 | 60 | 1016.5 |
| 20260905132516 | 31 | 203 | 11.3 | 24.1 | 0.00 | 0.00 | 0.00 | 59 | 1016.6 |
| 20260905131516 | 31 | 203 | 9.7 | 17.7 | 0.00 | 0.00 | 0.00 | 57 | 1016.8 |
| 20260905130516 | 31 | 225 | 8.0 | 17.7 | 0.00 | 0.00 | 0.00 | 57 | 1016.8 |
| 20260905125516 | 31 | 225 | 11.3 | 24.1 | 0.00 | 0.00 | 0.00 | 58 | 1016.8 |
| 20260905124516 | 31 | 203 | 11.3 | 33.8 | 0.00 | 0.00 | 0.00 | 56 | 1016.8 |
| 20260905123516 | 31 | 203 | 9.7 | 20.9 | 0.00 | 0.00 | 0.00 | 57 | 1016.9 |
| 20260905122516 | 31 | 203 | 8.0 | 19.3 | 0.00 | 0.00 | 0.00 | 56 | 1017.0 |
| 20260905121516 | 31 | 225 | 11.3 | 19.3 | 0.00 | 0.00 | 0.00 | 57 | 1017.0 |
| 20260905120516 | 31 | 203 | 12.9 | 22.5 | 0.00 | 0.00 | 0.00 | 55 | 1017.0 |
| 20260905115516 | 31 | 248 | 9.7 | 24.1 | 0.00 | 0.00 | 0.00 | 57 | 1016.9 |
| 20260905114516 | 31 | 203 | 14.5 | 24.1 | 0.00 | 0.00 | 0.00 | 57 | 1017.0 |
| 20260905113516 | 31 | 225 | 14.5 | 25.7 | 0.00 | 0.00 | 0.00 | 57 | 1017.1 |
| 20260905112516 | 32 | 203 | 9.7 | 25.7 | 0.00 | 0.00 | 0.00 | 54 | 1017.0 |
| 20260905111516 | 32 | 225 | 9.7 | 22.5 | 0.00 | 0.00 | 0.00 | 53 | 1017.0 |
| 20260905110536 | 32 | 203 | 11.3 | 22.5 | 0.00 | 0.00 | 0.00 | 53 | 1016.9 |
| 20260905105516 | 32 | 225 | 9.7 | 24.1 | 0.00 | 0.00 | 0.00 | 54 | 1016.9 |
| 20260905104536 | 31 | 203 | 12.9 | 24.1 | 0.00 | 0.00 | 0.00 | 57 | 1016.9 |
| 20260905103516 | 31 | 225 | 14.5 | 25.7 | 0.00 | 0.00 | 0.00 | 59 | 1016.9 |
| 20260905102516 | 31 | 203 | 12.9 | 30.6 | 0.00 | 0.00 | 0.00 | 59 | 1017.0 |
| 20260905101519 | 31 | 203 | 8.0 | 17.7 | 0.00 | 0.00 | 0.00 | 60 | 1017.2 |
| 20260905100515 | 31 | 203 | 11.3 | 27.4 | 0.00 | 0.00 | 0.00 | 60 | 1017.1 |
| 20260905095515 | 31 | 225 | 9.7 | 17.7 | 0.00 | 0.00 | 0.00 | 60 | 1017.3 |
| 20260905094515 | 31 | 203 | 9.7 | 22.5 | 0.00 | 0.00 | 0.00 | 58 | 1017.5 |
| 20260905093516 | 31 | 203 | 12.9 | 20.9 | 0.00 | 0.00 | 0.00 | 58 | 1017.5 |
| 20260905092516 | 31 | 225 | 8.0 | 17.7 | 0.00 | 0.00 | 0.00 | 59 | 1017.7 |
| 20260905091515 | 31 | 203 | 6.4 | 20.9 | 0.00 | 0.00 | 0.00 | 59 | 1017.7 |
| 20260905090516 | 30 | 203 | 6.4 | 12.9 | 0.00 | 0.00 | 0.00 | 59 | 1017.7 |
| 20260905085516 | 30 | 203 | 11.3 | 19.3 | 0.00 | 0.00 | 0.00 | 59 | 1017.6 |
| 20260905084515 | 30 | 203 | 9.7 | 19.3 | 0.00 | 0.00 | 0.00 | 60 | 1017.7 |
| 20260905083516 | 30 | 203 | 4.8 | 12.9 | 0.00 | 0.00 | 0.00 | 61 | 1017.6 |
| 20260905082535 | 30 | 203 | 4.8 | 9.7 | 0.00 | 0.00 | 0.00 | 62 | 1017.7 |
| 20260905081516 | 30 | 203 | 4.8 | 14.5 | 0.00 | 0.00 | 0.00 | 61 | 1017.8 |
| 20260905080535 | 30 | 203 | 4.8 | 9.7 | 0.00 | 0.00 | 0.00 | 59 | 1017.6 |
| 20260905075517 | 29 | 203 | 6.4 | 12.9 | 0.00 | 0.00 | 0.00 | 56 | 1017.7 |
| 20260905074516 | 29 | 180 | 3.2 | 8.0 | 0.00 | 0.00 | 0.00 | 50 | 1017.6 |
| 20260905073517 | 28 | 113 | 4.8 | 8.0 | 0.00 | 0.00 | 0.00 | 51 | 1017.7 |